Weather History for Tapachula Airport, Mexico

Change the Weather History Date:

Thursday, March 7, 2013

  Actual Average Record
Temperature  
Mean Temperature 81 °F -  
Max Temperature 89 °F 87 °F 91 °F (1999)
Min Temperature 73 °F 72 °F 69 °F (2001)
Cooling Degree Days 16    
Growing Degree Days 31 (Base 50)    
Moisture  
Dew Point 70 °F    
Average Humidity 70    
Maximum Humidity 88    
Minimum Humidity 46    
Precipitation  
Precipitation 0.00 in - - ()
Sea Level Pressure  
Sea Level Pressure 29.91 in    
Wind  
Wind Speed 2 mph ()    
Max Wind Speed 14 mph    
Max Gust Speed -    
Visibility 7.0 miles    
Events      
Averages and records for this station are not official NWS values.
T = Trace of Precipitation, MM = Missing Value Source: Averaged Metar Reports

Daily Weather History Graph

Daily Weather History Graph

Search for Another Location

Airport:

Trip Planner

Search our weather history database for the weather conditions in past years. The results will help you decide how hot, cold, wet, or windy it might be!

Date:

Astronomy

Mar. 07, 2013 Rise Set
Actual Time 6:22 AM CST 6:18 PM CST
Civil Twilight 6:00 AM CST 6:40 PM CST
Nautical Twilight 5:36 AM CST 7:04 PM CST
Astronomical Twilight 5:11 AM CST 7:29 PM CST
Moon 2:49 AM CST (3/7) 2:37 PM CST (3/7)
Length of Visible Light 12h 39m
Length of Day
11h 56m
Waning Crescent, 20% of the Moon is Illuminated
Mar 7
Waning Crescent
Mar 11
New
Mar 19
First Quarter
Mar 27
Full
Apr 2
Last Quarter

Hourly Weather History & Observations

Time (CST) Temp. Heat Index Dew Point Humidity Pressure Visibility Wind Dir Wind Speed Gust Speed Precip Events Conditions
12:40 AM 78.8 °F - 71.6 °F 78% 29.94 in 8.0 mi Calm Calm - N/A   Scattered Clouds
1:40 AM 78.8 °F - 69.8 °F 74% 29.92 in 8.0 mi Calm Calm - N/A   Scattered Clouds
2:40 AM 77.0 °F - 71.6 °F 83% 29.86 in 5.0 mi Calm Calm - N/A   Scattered Clouds
3:50 AM 75.2 °F - 69.8 °F 83% 29.90 in 5.0 mi Calm Calm - N/A   Scattered Clouds
4:40 AM 77.0 °F - 71.6 °F 83% 29.92 in 5.0 mi Calm Calm - N/A   Scattered Clouds
5:40 AM 73.4 °F - 69.8 °F 88% 29.88 in 5.0 mi Calm Calm - N/A   Scattered Clouds
6:41 AM 75.2 °F - 69.8 °F 83% 29.94 in 5.0 mi Calm Calm - N/A   Scattered Clouds
7:40 AM - - - N/A% - 4.0 mi Calm Calm - N/A   Scattered Clouds
8:45 AM 78.8 °F - 69.8 °F 74% 29.91 in 4.0 mi Calm Calm - N/A   Mostly Cloudy
9:45 AM 82.4 °F 87.2 °F 71.6 °F 70% 29.98 in 5.0 mi Calm Calm - N/A   Mostly Cloudy
10:54 AM 87.8 °F 90.4 °F 66.2 °F 49% 29.98 in 5.0 mi West 8.1 mph - N/A   Mostly Cloudy
11:40 AM 89.6 °F 92.2 °F 66.2 °F 46% 29.90 in 6.0 mi WSW 11.5 mph - N/A   Mostly Cloudy
12:50 PM 87.8 °F 90.4 °F 66.2 °F 49% 29.96 in 7.0 mi WSW 13.8 mph - N/A   Mostly Cloudy
1:45 PM 87.8 °F 90.4 °F 66.2 °F 49% 29.94 in 7.0 mi WSW 11.5 mph - N/A   Mostly Cloudy
2:45 PM 86.0 °F 90.4 °F 69.8 °F 58% 29.91 in 7.0 mi WSW 11.5 mph - N/A   Mostly Cloudy
3:49 PM 86.0 °F 90.4 °F 69.8 °F 58% 29.88 in 7.0 mi WSW 11.5 mph - N/A   Mostly Cloudy
4:40 PM 87.8 °F 92.6 °F 69.8 °F 55% 29.86 in 7.0 mi WSW 11.5 mph - N/A   Mostly Cloudy
5:40 PM 86.0 °F 90.4 °F 69.8 °F 58% 29.86 in 7.0 mi WSW 11.5 mph - N/A   Mostly Cloudy
6:40 PM 82.4 °F 87.2 °F 71.6 °F 70% 29.88 in 10.0 mi Calm Calm - N/A   Mostly Cloudy
7:40 PM 80.6 °F 84.6 °F 71.6 °F 74% 29.91 in 10.0 mi Calm Calm - N/A   Mostly Cloudy
8:40 PM 78.8 °F - 71.6 °F 78% 29.83 in 10.0 mi Calm Calm - N/A   Mostly Cloudy
9:40 PM 78.8 °F - 71.6 °F 78% 29.93 in 10.0 mi Calm Calm - N/A   Scattered Clouds
10:40 PM 78.8 °F - 71.6 °F 78% 29.93 in 10.0 mi Calm Calm - N/A   Scattered Clouds
11:40 PM 77.0 °F - 71.6 °F 83% 29.89 in 10.0 mi Calm Calm - N/A   Scattered Clouds